AirNav   TITAN Aviation Fuels
 
 1104 users online  

KPCW Erie-Ottawa International Airport
Port Clinton, Ohio, USA

GOING TO PORT CLINTON?


FAA INFORMATION EFFECTIVE 19 MAY 2022

Location

FAA Identifier: PCW
Lat/Long: 41-30-58.5740N 082-52-10.1520W
41-30.976233N 082-52.169200W
41.5162706,-82.8694867
(estimated)
Elevation: 590.1 ft. / 179.9 m (surveyed)
Variation: 07W (2010)
From city: 3 miles E of PORT CLINTON, OH
Time zone: UTC -4 (UTC -5 during Standard Time)
Zip code: 43452

Airport Operations

Airport use: Open to the public
Activation date: 07/1971
Control tower: no
ARTCC: CLEVELAND CENTER
FSS: CLEVELAND FLIGHT SERVICE STATION
NOTAMs facility: CLE (NOTAM-D service available)
Attendance: 0700-1700
Wind indicator: lighted
Segmented circle: no
Lights: ACTVT REIL RWY 09 & 27; HIRL RWY 09/27; MIRL RWY 18/36 - CTAF. PAPI RWY 09 & 27 OPR CONSLY.
Beacon: white-green (lighted land airport)
Operates sunset to sunrise.
International operations: customs landing rights airport

Airport Communications

CTAF/UNICOM: 122.8
WX AWOS-3: 118.775 (419-734-9955)
CLEVELAND APPROACH: 126.35
CLEVELAND DEPARTURE: 126.35
WX AWOS-3 at S24 (15 nm SW): 119.575 (419-547-6932)

Nearby radio navigation aids

VOR radial/distance  VOR name  Freq  Var
DJBr292/33.2DRYER VOR/DME113.6005W

 
NDB name  Hdg/Dist  Freq  Var  ID
PORT CLINTONat field42307WPCW .--. -.-. .--
TIFFIN037/29.726905WTII - .. ..
GROSSE ILE167/37.341907WRYS .-. -.-- ...

Airport Services

Fuel available: 100LL JET-A+
Parking: hangars and tiedowns
Airframe service: MAJOR
Powerplant service: MAJOR
Bottled oxygen: HIGH/LOW
Bulk oxygen: HIGH/LOW

Runway Information

Runway 9/27

Dimensions: 5646 x 100 ft. / 1721 x 30 m
Surface: asphalt/grooved, in good condition
Weight bearing capacity: 
Single wheel: 100.0
Runway edge lights: high intensity
Operational restrictions: CALM WIND RWY.
RUNWAY 9  RUNWAY 27
Latitude: 41-30.961708N41-31.081315N
Longitude: 082-52.900140W082-51.673483W
Elevation: 588.7 ft.588.2 ft.
Traffic pattern: leftleft
Runway heading: 090 magnetic, 083 true270 magnetic, 263 true
Displaced threshold: no201 ft.
Declared distances: TORA:5646 TODA:5646 ASDA:5161 LDA:5161TORA:5646 TODA:5646 ASDA:5646 LDA:5445
Markings: nonprecision, in good conditionnonprecision, in good condition
Visual slope indicator: 4-light PAPI on left (3.00 degrees glide path)4-light PAPI on left (3.00 degrees glide path)
Runway end identifier lights: yesyes
Touchdown point: yes, no lightsyes, no lights
Obstructions: 65 ft. tree, 1659 ft. from runway, 402 ft. right of centerline, 22:1 slope to clear42 ft. tree, 1098 ft. from runway, 334 ft. right of centerline, 21:1 slope to clear

Runway 18/36

Dimensions: 4002 x 75 ft. / 1220 x 23 m
Surface: asphalt, in good condition
Runway edge lights: medium intensity
RUNWAY 18  RUNWAY 36
Latitude: 41-31.241588N41-30.583033N
Longitude: 082-52.019652W082-51.986897W
Elevation: 586.1 ft.589.0 ft.
Traffic pattern: leftleft
Runway heading: 185 magnetic, 178 true005 magnetic, 358 true
Markings: basic, in fair conditionbasic, in fair condition
Runway end identifier lights: nono
Touchdown point: yes, no lightsyes, no lights

Airport Ownership and Management from official FAA records

Ownership: Publicly-owned
Owner: ERIE OTTAWA ARPT AUTH
3255 E STATE RD
PORT CLINTON, OH 43452-2542
Phone 419-734-6297
Manager: CLAYTON F FINKEN
3255 E STATE RD
PORT CLINTON, OH 43452-2542
Phone 419-734-6297

Airport Operational Statistics

Aircraft based on the field: 77
Single engine airplanes: 61
Multi engine airplanes: 9
Jet airplanes: 6
Helicopters: 1
    
Aircraft operations: avg 148/day *
46% local general aviation
28% transient general aviation
26% air taxi
<1% military
* for 12-month period ending 21 October 2020

Additional Remarks

TXL A CLSD TO ACFT WITH WINGSPAN GTR THAN 49 FT.
BIRDS & OTR WILDLIFE ON & INVOF ARPT.
FOR CD CTC CLEVELAND APCH AT 216-352-2323.
CUST AVBL 24 HRS 7 DAYS PER WEEK. REQ MUST BE MADE PRIOR TO ARR. LCL OFC 419-732-4446.

Instrument Procedures

NOTE: All procedures below are presented as PDF files. If you need a reader for these files, you should download the free Adobe Reader.

NOT FOR NAVIGATION. Please procure official charts for flight.
FAA instrument procedures published for use from 19 May 2022 at 0901Z to 16 June 2022 at 0900Z.

 
IAPs - Instrument Approach Procedures
RNAV (GPS) RWY 09   download (206KB)
RNAV (GPS) RWY 27   download (198KB)
NDB RWY 27   download (245KB)
NOTE: Special Alternate Minimums apply   download (145KB)
NOTE: Special Take-Off Minimums/Departure Procedures apply   download (237KB)

Other nearby airports with instrument procedures:

S24 - Sandusky County Regional Airport (15 nm SW)
14G - Fremont Airport (17 nm SW)
5A1 - Norwalk-Huron County Airport (22 nm SE)
KTDZ - Toledo Executive Airport (28 nm W)
8G1 - Willard Airport (29 nm S)
 
Loc | Ops | Rwys | IFR | FBO | Links
Com | Nav | Svcs | Stats | Notes
Area around KPCW (Erie-Ottawa International Airport)
 
Road maps at: MapQuest Bing Google
 
Aerial photo
WARNING: Photo may not be current or correct
Aerial photo of KPCW (Erie-Ottawa International Airport)
Photo by Tal Reichert
Photo taken 29-Jul-2012
looking northeast.

Do you have a better or more recent aerial photo of Erie-Ottawa International Airport that you would like to share? If so, please send us your photo.

 
Sectional chart

 
Airport distance calculator
Flying to Erie-Ottawa International Airport? Find the distance to fly.

From to KPCW

Sunrise and sunset
Times for 25-May-2022
 Local
(UTC-4)
 Zulu
(UTC)
Morning civil twilight05:3209:32
Sunrise06:0510:05
Sunset20:5200:52
Evening civil twilight21:2501:25

Current date and time
Zulu (UTC)  26-May-2022 00:50:55
Local (UTC-4)  25-May-2022 20:50:55
 
METAR
KPCW 260035Z AUTO 15008G15KT 10SM CLR 24/18 A2997 RMK AO2
TAF
KTOL 
42nm W 
251720Z 2518/2618 12010KT P6SM BKN035 FM252000 13010KT P6SM SCT050 FM260100 15009KT P6SM VCTS BKN035CB PROB30 2603/2605 2SM -TSRA BKN015CB FM260500 18011KT P6SM BKN035 FM261700 19012G22KT P6SM BKN035
KMFD 
45nm S 
251720Z 2518/2618 13010KT P6SM BKN060 FM260300 15012KT P6SM VCSH BKN050 FM260700 18012KT P6SM BKN050 FM261700 19012G22KT P6SM BKN035
CYQG 
46nm N 
251740Z 2518/2618 11015G25KT P6SM SCT030 OVC100 TEMPO 2518/2524 P6SM -SHRA BKN030 FM260000 11015G25KT P6SM SCT060 OVC100 BECMG 2600/2602 20010KT FM260300 20010KT P6SM -SHRA OVC025 TEMPO 2603/2609 5SM -SHRA BR OVC020 FM260900 20010KT P6SM SCT015 BKN025 FM261100 21012G22KT P6SM BKN015 BECMG 2611/2613 21015G25KT FM261400 21015G25KT P6SM BKN025 RMK FCST BASED ON AUTO OBS. NXT FCST BY 260000Z
KCLE 
46nm E 
252045Z 2521/2624 13012KT P6SM BKN060 FM260300 16012G20KT P6SM VCSH BKN080 FM260800 17013G21KT P6SM BKN080 FM261400 19012G22KT P6SM BKN035 FM262100 19012G22KT P6SM VCTS BKN035CB
KFDY 
47nm SW 
251720Z 2518/2618 13010KT P6SM SCT035 FM260000 15012KT P6SM VCTS BKN035CB FM260500 18012KT P6SM BKN035 FM261700 19012G22KT P6SM BKN035
KDTW 
48nm NW 
252105Z 2521/2624 11008G16KT P6SM SCT030 BKN050 TEMPO 2601/2605 3SM SHRA BKN020 OVC040 FM260500 17009KT 6SM BR OVC012 PROB30 2608/2614 4SM -DZ OVC007 FM261400 21013KT 6SM -SHRA BKN022 BKN045
NOTAMs
Click for the latest NOTAMs
NOTAMs are issued by the DoD/FAA and will open in a separate window not controlled by AirNav.

 

 
 

FBO, Fuel Providers, and Aircraft Ground Support

  
 Business Name 
 
 Contact 
 
 Services / Description 
 
Fuel Prices
 
Comments
  
 Erie Ottawa International Airport Authority
419-734-6297
[web site]
[email]
Aviation fuel, Aircraft ground handling, Oxygen service, Aircraft parking (ramp or tiedown), Hangars, Hangar leasing / sales, GPU / Power cart, ...
 
U.S. Government AIR Card   U.S. Customs Service   WingPoints™ Rewards   Crew cars  
 
More info about Erie Ottawa International Airport Authority
Phillips 66
100LL Jet A
FS $6.77 $6.10 
SS $6.52 --- 
 Updated 12-May-2022
 
   4 read write
FS=Full service
SS=Self service
Update Fuel Prices
 

Would you like to see your business listed on this page?

 If your business provides an interesting product or service to pilots, flight crews, aircraft, or users of the Erie-Ottawa International Airport, you should consider listing it here.  To start the listing process, click on the button below
 
Add a business
 

Other Pages about Erie-Ottawa International Airport

www.portclintonairport.com
 
Update a link
 
Copyright © AirNav, LLC. All rights reserved. Privacy Policy  Contact